This demonstration page uses our WeatherBlox Daily Observations layout. Learn more.

Left ArrowRight Arrow

34.74481, -87.66753

Hourly Observations for December 16, 2020

Temp ( °F °C ) Dew Point ( °F °C ) Humidity (%) Winds ( mph kmh ) Pressure ( in mb ) Visibility ( mi km ) Precip ( " mm )
12:53 am 00:53 Cloudy 46 7.8 41 5 83 83 Calm 29.93 1014 8 13 0.01 0.25
1:03 am 01:03 Cloudy 46 7.8 41 5 83 83 SE 3 6 29.94 1014 8 13 0.00 0.00
1:53 am 01:53 Cloudy 46 7.8 40 4.4 79 79 SE 8 13 29.91 1013 9 14 0.00 0.00
2:53 am 02:53 Cloudy 47 8.3 41 5 80 80 SSW 3 6 29.93 1013 10 16 0.00 0.00
3:38 am 03:38 Cloudy with Light Rain 47 8.3 41 5 80 80 W 3 6 29.93 1014 6 10 0.00 0.00
3:53 am 03:53 Cloudy with Light Rain 47 8.3 41 5 80 80 Calm 29.92 1013 6 10 0.01 0.25
4:33 am 04:33 Cloudy with Light Rain 46 7.8 41 5 83 83 Calm 29.91 1013 3 5 0.02 0.51
4:53 am 04:53 Cloudy with Mist and Fog 46 7.8 42 5.6 86 86 Calm 29.90 1013 3 4 0.02 0.51
5:12 am 05:12 Cloudy with Light Rain 46 7.8 42 5.6 86 86 VRB 5 7 29.92 1013 3 4 0.01 0.25
5:22 am 05:22 Cloudy with Light Rain 46 7.8 40 4.4 79 79 WNW 9 15 29.92 1013 3 4 0.02 0.51
5:28 am 05:28 Cloudy with Light Rain 45 7.2 40 4.4 83 83 WNW 8 13 29.92 1013 3 5 0.02 0.51
5:53 am 05:53 Cloudy with Light Rain 44 6.7 39 3.9 83 83 WNW 10 17 29.92 1013 4 6 0.03 0.76
6:43 am 06:43 Cloudy with Light Rain 42 5.6 36 2.2 79 79 WNW 12 19 29.95 1014 4 6 0.01 0.25
6:53 am 06:53 Cloudy with Haze 42 5.6 36 2.2 79 79 WNW 9 15 29.93 1013 5 8 0.01 0.25
7:10 am 07:10 Cloudy with Rain 42 5.6 36 2.2 79 79 NW 8 13 29.95 1014 4 6 0.02 0.51
7:23 am 07:23 Cloudy with Rain 42 5.6 36 2.2 79 79 NW 8 13 29.95 1014 3 4 0.05 1.27
7:25 am 07:25 Cloudy with Light Rain 42 5.6 36 2.2 79 79 NW 7 11 29.95 1014 3 5 0.05 1.27
7:32 am 07:32 Cloudy with Rain 42 5.6 36 2.2 79 79 NW 7 11 29.95 1014 4 6 0.05 1.27
7:46 am 07:46 Cloudy 41 5 36 2.2 82 82 WNW 8 13 29.96 1015 7 11 0.05 1.27
7:53 am 07:53 Cloudy 42 5.6 36 2.2 79 79 WNW 8 13 29.95 1014 7 11 0.05 1.27
8:21 am 08:21 Cloudy 41 5 36 2.2 82 82 WNW 9 15 29.97 1015 8 13 0.00 0.00
8:40 am 08:40 Cloudy with Haze 41 5 35 1.7 79 79 WNW 8 13 29.97 1015 3 4 0.00 0.00
8:46 am 08:46 Cloudy with Haze 41 5 35 1.7 79 79 WNW 8 13 29.97 1015 3 5 0.00 0.00
8:53 am 08:53 Cloudy with Haze 41 5 35 1.7 79 79 WNW 7 11 29.95 1014 4 6 0.00 0.00
9:01 am 09:01 Cloudy with Haze 41 5 35 1.7 79 79 NW 10 17 29.97 1015 4 6 0.00 0.00
9:08 am 09:08 Cloudy with Haze 41 5 35 1.7 79 79 WNW 9 15 29.98 1015 3 5 0.00 0.00
9:25 am 09:25 Cloudy with Haze 41 5 35 1.7 79 79 NW 8 13 29.98 1015 4 6 0.00 0.00
9:36 am 09:36 Cloudy 41 5 35 1.7 79 79 NW 8 13 29.98 1015 8 13 0.00 0.00
9:53 am 09:53 Cloudy 42 5.6 35 1.7 76 76 WNW 9 15 29.96 1015 10 16 0.00 0.00
10:53 am 10:53 Cloudy 41 5 34 1.1 76 76 WNW 15 24 29.96 1015 9 14 0.00 0.00
11:28 am 11:28 Cloudy 40 4.4 34 1.1 79 79 WNW 13 20 29.97 1015 9 14 0.00 0.00
11:53 am 11:53 Cloudy 40 4.4 34 1.1 79 79 WNW 12 19 29.94 1014 10 16 0.00 0.00
12:00 pm 12:00 Cloudy 41 5 34 1.1 76 76 WNW 10 17 29.96 1015 10 16 0.00 0.00
12:53 pm 12:53 Cloudy 41 5 34 1.1 76 76 WNW 13 20 29.94 1014 10 16 0.00 0.00
1:53 pm 13:53 Cloudy 40 4.4 32 0 73 73 WNW 9 15 29.95 1014 8 13 0.00 0.00
2:53 pm 14:53 Cloudy 39 3.9 30 -1.1 70 70 WNW 14 22 29.96 1015 9 14 0.00 0.00
3:33 pm 15:33 Cloudy 38 3.3 30 -1.1 73 73 NW 9 15 30.00 1016 9 14 0.00 0.00
3:51 pm 15:51 Cloudy 37 3 28 -2 70 70 NW 8 13 30.01 1016 10 16 0.00 0.00
3:53 pm 15:53 Cloudy 38 3.3 29 -1.7 70 70 WNW 8 13 29.99 1016 10 16 0.00 0.00
4:53 pm 16:53 Cloudy 38 3.3 28 -2.2 68 68 NW 10 17 30.01 1016 10 16 0.00 0.00
5:53 pm 17:53 Cloudy 37 2.8 28 -2.2 70 70 WNW 14 22 30.04 1017 10 16 0.00 0.00
6:53 pm 18:53 Cloudy 37 2.8 27 -2.8 67 67 NNW 8 13 30.06 1018 10 16 0.00 0.00
7:53 pm 19:53 Cloudy 37 2.8 27 -2.8 67 67 NW 6 9 30.08 1019 9 14 0.00 0.00
8:53 pm 20:53 Cloudy 37 2.8 27 -2.8 67 67 NNW 7 11 30.07 1018 10 16 0.00 0.00
9:53 pm 21:53 Cloudy 37 2.8 26 -3.3 65 65 NNW 7 11 30.09 1019 10 16 0.00 0.00
10:53 pm 22:53 Cloudy 37 2.8 26 -3.3 65 65 NNW 8 13 30.11 1020 10 16 0.00 0.00
11:53 pm 23:53 Cloudy 37 2.8 25 -3.9 62 62 NNW 8 13 30.10 1019 10 16 0.00 0.00

Powered by AerisWeather